Location: Chantarel
(45.1638°N, 1.7873°E)
Time: 19:31:42
(UTC+00:00)

Cosmos 2219 Rocket - Pass Details

Date: 03 March 2021
Orbit: 826 x 848 km, 71.0° (Epoch: 13 April)

Event Time Altitude Azimuth Distance (km) Brightness Sun altitude
Rises 19:23:01 0° 185° (S) 3,351 5.3 -18.4°
Reaches altitude 10° 19:25:31 10° 180° (S) 2,423 4.5 -18.8°
Maximum altitude 19:30:47 46° 108° (ESE) 1,103 2.3 -19.7°
Drops below altitude 10° 19:36:07 10° 37° (NE) 2,449 4.4 -20.6°
Sets 19:38:39 0° 31° (NNE) 3,391 5.2 -21.1°
